TimeEST,TemperatureF,Dew PointF,Humidity,Sea Level PressureIn,VisibilityMPH,Wind Direction,Wind SpeedMPH,Gust SpeedMPH,PrecipitationIn,Events,Conditions,WindDirDegrees,DateUTC
12:15 AM,57.2,57.2,100,30.17,0.5,Calm,Calm,-,N/A,Fog,Fog,0,2013-11-16 05:15:00
12:35 AM,57.2,57.2,100,30.17,2.5,Calm,Calm,-,N/A,,Overcast,0,2013-11-16 05:35:00
12:55 AM,57.2,57.2,100,30.16,4.0,Calm,Calm,-,N/A,,Overcast,0,2013-11-16 05:55:00
1:15 AM,57.2,57.2,100,30.16,4.0,Calm,Calm,-,N/A,,Overcast,0,2013-11-16 06:15:00
1:35 AM,57.2,57.2,100,30.16,4.0,Calm,Calm,-,N/A,,Overcast,0,2013-11-16 06:35:00
1:55 AM,57.2,57.2,100,30.16,1.2,NE,3.5,-,N/A,,Overcast,50,2013-11-16 06:55:00
2:15 AM,57.2,57.2,100,30.16,0.2,ENE,3.5,-,N/A,Fog,Fog,70,2013-11-16 07:15:00
2:35 AM,57.2,57.2,100,30.15,0.2,Calm,Calm,-,N/A,Fog,Fog,0,2013-11-16 07:35:00
2:55 AM,55.4,55.4,100,30.15,0.2,Calm,Calm,-,N/A,Fog,Fog,0,2013-11-16 07:55:00
3:15 AM,55.4,55.4,100,30.15,0.2,Calm,Calm,-,N/A,Fog,Fog,0,2013-11-16 08:15:00
3:35 AM,55.4,55.4,100,30.15,0.2,Calm,Calm,-,N/A,Fog,Fog,0,2013-11-16 08:35:00
3:55 AM,55.4,55.4,100,30.16,0.2,Calm,Calm,-,N/A,Fog,Fog,0,2013-11-16 08:55:00
4:15 AM,55.4,55.4,100,30.16,0.2,Calm,Calm,-,N/A,Rain,Light Rain,0,2013-11-16 09:15:00
4:35 AM,55.4,55.4,100,30.17,0.2,Calm,Calm,-,N/A,Fog,Fog,0,2013-11-16 09:35:00
4:55 AM,55.4,55.4,100,30.17,0.2,Calm,Calm,-,N/A,Fog,Fog,0,2013-11-16 09:55:00
5:15 AM,55.4,55.4,100,30.17,0.2,Calm,Calm,-,N/A,Fog,Fog,0,2013-11-16 10:15:00
5:35 AM,55.4,55.4,100,30.17,0.2,Calm,Calm,-,N/A,Rain,Light Rain,0,2013-11-16 10:35:00
5:55 AM,55.4,55.4,100,30.18,0.2,Calm,Calm,-,N/A,Rain,Light Rain,0,2013-11-16 10:55:00
6:15 AM,55.4,55.4,100,30.18,0.2,Calm,Calm,-,N/A,Fog,Fog,0,2013-11-16 11:15:00
6:35 AM,55.4,55.4,100,30.18,0.2,Calm,Calm,-,N/A,Rain,Light Rain,0,2013-11-16 11:35:00
6:55 AM,55.4,55.4,100,30.19,0.2,Calm,Calm,-,N/A,Rain,Rain,0,2013-11-16 11:55:00
7:15 AM,55.4,55.4,100,30.19,0.2,East,3.5,-,N/A,Rain,Light Rain,90,2013-11-16 12:15:00
7:35 AM,55.4,55.4,100,30.19,0.2,East,4.6,-,N/A,Fog,Fog,90,2013-11-16 12:35:00
7:55 AM,55.4,55.4,100,30.20,0.2,Calm,Calm,-,N/A,Fog,Fog,0,2013-11-16 12:55:00
8:15 AM,55.4,55.4,100,30.20,0.2,Calm,Calm,-,N/A,Fog,Fog,0,2013-11-16 13:15:00
8:35 AM,57.2,57.2,100,30.21,0.2,East,3.5,-,N/A,Fog,Fog,80,2013-11-16 13:35:00
8:55 AM,57.2,57.2,100,30.21,0.2,Calm,Calm,-,N/A,Fog,Fog,0,2013-11-16 13:55:00
9:15 AM,59.0,59.0,100,30.21,0.8,East,3.5,-,N/A,,Overcast,100,2013-11-16 14:15:00
9:35 AM,59.0,59.0,100,30.22,7.0,East,5.8,-,N/A,,Overcast,100,2013-11-16 14:35:00
9:55 AM,59.0,59.0,100,30.21,7.0,East,3.5,-,N/A,,Overcast,90,2013-11-16 14:55:00
10:15 AM,60.8,60.8,100,30.21,10.0,East,8.1,-,N/A,,Overcast,90,2013-11-16 15:15:00
10:35 AM,62.6,62.6,100,30.21,10.0,East,10.4,-,N/A,,Mostly Cloudy,100,2013-11-16 15:35:00
10:55 AM,62.6,62.6,100,30.21,10.0,East,9.2,-,N/A,,Mostly Cloudy,100,2013-11-16 15:55:00
11:15 AM,64.4,62.6,94,30.21,10.0,East,5.8,-,N/A,,Overcast,90,2013-11-16 16:15:00
11:35 AM,69.8,64.4,83,30.21,10.0,ESE,8.1,-,N/A,,Mostly Cloudy,110,2013-11-16 16:35:00
11:55 AM,69.8,64.4,83,30.19,10.0,ENE,6.9,-,N/A,,Mostly Cloudy,60,2013-11-16 16:55:00
12:15 PM,71.6,64.4,78,30.18,7.0,East,5.8,-,N/A,,Scattered Clouds,90,2013-11-16 17:15:00
12:35 PM,71.6,62.6,73,30.17,10.0,ESE,8.1,-,N/A,,Scattered Clouds,120,2013-11-16 17:35:00
12:55 PM,73.4,62.6,69,30.16,10.0,SE,6.9,-,N/A,,Scattered Clouds,130,2013-11-16 17:55:00
1:15 PM,73.4,62.6,69,30.16,10.0,SE,6.9,-,N/A,,Scattered Clouds,130,2013-11-16 18:15:00
1:35 PM,75.2,62.6,65,30.15,10.0,East,8.1,-,N/A,,Mostly Cloudy,80,2013-11-16 18:35:00
1:55 PM,73.4,62.6,69,30.14,10.0,East,4.6,-,N/A,,Overcast,100,2013-11-16 18:55:00
2:15 PM,73.4,62.6,69,30.14,10.0,East,6.9,-,N/A,,Overcast,100,2013-11-16 19:15:00
2:35 PM,73.4,62.6,69,30.13,10.0,East,6.9,-,N/A,,Overcast,90,2013-11-16 19:35:00
2:55 PM,73.4,62.6,69,30.13,10.0,ESE,5.8,-,N/A,,Overcast,110,2013-11-16 19:55:00
3:15 PM,71.6,60.8,69,30.13,10.0,ESE,6.9,-,N/A,,Overcast,120,2013-11-16 20:15:00
3:35 PM,71.6,60.8,69,30.13,10.0,ESE,3.5,-,N/A,,Overcast,120,2013-11-16 20:35:00
3:55 PM,71.6,62.6,73,30.13,10.0,ESE,4.6,-,N/A,,Overcast,110,2013-11-16 20:55:00
4:15 PM,71.6,62.6,73,30.13,10.0,ESE,6.9,-,N/A,,Overcast,120,2013-11-16 21:15:00
4:35 PM,69.8,62.6,78,30.13,10.0,ESE,6.9,-,N/A,,Overcast,110,2013-11-16 21:35:00
4:55 PM,69.8,62.6,78,30.13,10.0,ESE,4.6,-,N/A,,Overcast,120,2013-11-16 21:55:00
5:15 PM,69.8,62.6,78,30.13,10.0,ESE,4.6,-,N/A,,Overcast,110,2013-11-16 22:15:00
5:35 PM,68.0,62.6,83,30.13,10.0,ESE,3.5,-,N/A,,Overcast,110,2013-11-16 22:35:00
5:55 PM,68.0,62.6,83,30.13,10.0,East,4.6,-,N/A,,Overcast,100,2013-11-16 22:55:00
6:15 PM,66.2,62.6,88,30.14,10.0,Calm,Calm,-,N/A,,Overcast,0,2013-11-16 23:15:00
6:35 PM,66.2,62.6,88,30.14,10.0,East,3.5,-,N/A,,Overcast,90,2013-11-16 23:35:00
6:55 PM,64.4,62.6,94,30.15,10.0,Calm,Calm,-,N/A,,Overcast,0,2013-11-16 23:55:00
7:15 PM,66.2,62.6,88,30.16,10.0,East,3.5,-,N/A,,Overcast,90,2013-11-17 00:15:00
7:35 PM,64.4,62.6,94,30.16,10.0,ESE,4.6,-,N/A,,Overcast,110,2013-11-17 00:35:00
7:55 PM,64.4,62.6,94,30.16,10.0,East,3.5,-,N/A,,Overcast,80,2013-11-17 00:55:00
8:15 PM,64.4,62.6,94,30.16,10.0,ESE,5.8,-,N/A,,Overcast,110,2013-11-17 01:15:00
8:35 PM,64.4,62.6,94,30.16,10.0,East,3.5,-,N/A,,Overcast,100,2013-11-17 01:35:00
8:55 PM,64.4,62.6,94,30.16,10.0,East,3.5,-,N/A,,Overcast,80,2013-11-17 01:55:00
9:15 PM,64.4,62.6,94,30.16,10.0,East,3.5,-,N/A,,Overcast,80,2013-11-17 02:15:00
9:35 PM,64.4,62.6,94,30.16,10.0,Calm,Calm,-,N/A,,Overcast,0,2013-11-17 02:35:00
9:55 PM,62.6,62.6,100,30.17,10.0,ENE,3.5,-,N/A,,Overcast,60,2013-11-17 02:55:00
10:15 PM,62.6,62.6,100,30.17,10.0,ENE,3.5,-,N/A,,Overcast,60,2013-11-17 03:15:00
10:35 PM,62.6,62.6,100,30.17,10.0,Calm,Calm,-,N/A,,Overcast,0,2013-11-17 03:35:00
10:55 PM,62.6,62.6,100,30.16,10.0,East,3.5,-,N/A,,Overcast,80,2013-11-17 03:55:00
11:15 PM,62.6,60.8,94,30.17,10.0,ENE,3.5,-,N/A,,Overcast,60,2013-11-17 04:15:00
11:35 PM,62.6,60.8,94,30.17,10.0,ENE,4.6,-,N/A,,Overcast,60,2013-11-17 04:35:00
11:55 PM,62.6,60.8,94,30.16,10.0,ENE,3.5,-,N/A,,Overcast,60,2013-11-17 04:55:00